Weather History for Palm Springs, CA

Change the Weather History Date:

Friday, March 15, 2013

  Actual Average Record
Temperature  
Mean Temperature 79 °F 66 °F  
Max Temperature 95 °F 79 °F 98 °F (1934)
Min Temperature 63 °F 53 °F 34 °F (1942)
Degree Days  
Heating Degree Days 0 3  
Month to date heating degree days 22 45  
Since 1 July heating degree days 760 823  
Cooling Degree Days 14 3  
Month to date cooling degree days 74 34  
Year to date cooling degree days 86 61  
Growing Degree Days 30 (Base 50)    
Moisture  
Dew Point 36 °F    
Average Humidity 30    
Maximum Humidity 48    
Minimum Humidity 11    
Precipitation  
Precipitation 0.00 in 0.01 in 0.70 in (2003)
Month to date precipitation 0.04 0.49  
Year to date precipitation 0.97 2.52  
Since 1 July precipitation 2.19 5.32  
Snow  
Snow 0.00 in - - ()
Month to date snowfall 0.0  
Year to date snowfall 0.0  
Since 1 July snowfall 0.0  
Snow Depth 0.00 in    
Sea Level Pressure  
Sea Level Pressure 29.87 in    
Wind  
Wind Speed 4 mph (NE)    
Max Wind Speed 18 mph    
Max Gust Speed 23 mph    
Visibility 10 miles    
Events      
T = Trace of Precipitation, MM = Missing Value Source: NWS Daily Summary

Daily Weather History Graph

Daily Weather History Graph

Search for Another Location

Airport:

Trip Planner

Search our weather history database for the weather conditions in past years. The results will help you decide how hot, cold, wet, or windy it might be!

Date:

Astronomy

Mar. 15, 2013 Rise Set
Actual Time 6:55 AM PDT 6:54 PM PDT
Civil Twilight 6:31 AM PDT 7:18 PM PDT
Nautical Twilight 6:02 AM PDT 7:47 PM PDT
Astronomical Twilight 5:33 AM PDT 8:17 PM PDT
Moon 9:01 AM PDT (3/15) 10:58 PM PDT (3/15)
Length of Visible Light 12h 47m
Length of Day
11h 58m
Waxing Crescent, 16% of the Moon is Illuminated
Mar 15
Waxing Crescent
Mar 19
First Quarter
Mar 27
Full
Apr 2
Last Quarter
Apr 10
New

Hourly Weather History & Observations

Time (PDT) Temp. Dew Point Humidity Pressure Visibility Wind Dir Wind Speed Gust Speed Precip Events Conditions
12:53 AM 75.9 °F 37.0 °F 24% 29.96 in 10.0 mi North 10.4 mph - N/A   Clear
1:53 AM 73.9 °F 37.0 °F 26% 29.94 in 10.0 mi NNW 8.1 mph - N/A   Clear
2:53 AM 73.0 °F 35.1 °F 25% 29.92 in 10.0 mi NNW 9.2 mph - N/A   Clear
3:53 AM 64.9 °F 43.0 °F 45% 29.91 in 10.0 mi Calm Calm - N/A   Clear
4:53 AM 64.0 °F 45.0 °F 50% 29.90 in 10.0 mi Calm Calm - N/A   Clear
5:53 AM 68.0 °F 39.9 °F 36% 29.90 in 10.0 mi Calm Calm - N/A   Clear
6:53 AM 68.0 °F 39.9 °F 36% 29.91 in 10.0 mi Calm Calm - N/A   Clear
7:53 AM 69.1 °F 43.0 °F 39% 29.91 in 10.0 mi Calm Calm - N/A   Mostly Cloudy
8:53 AM 75.0 °F 41.0 °F 29% 29.93 in 10.0 mi Calm Calm - N/A   Mostly Cloudy
9:53 AM 80.1 °F 39.0 °F 23% 29.94 in 10.0 mi SSW 3.5 mph - N/A   Clear
10:53 AM 88.0 °F 33.1 °F 14% 29.92 in 10.0 mi Variable 3.5 mph - N/A   Clear
11:53 AM 88.0 °F 34.0 °F 15% 29.91 in 10.0 mi East 3.5 mph - N/A   Mostly Cloudy
12:53 PM 89.1 °F 34.0 °F 14% 29.89 in 10.0 mi Variable 4.6 mph - N/A   Mostly Cloudy
1:53 PM 93.0 °F 33.1 °F 12% 29.86 in 10.0 mi Variable 4.6 mph - N/A   Scattered Clouds
2:53 PM 93.9 °F 30.9 °F 11% 29.83 in 10.0 mi East 5.8 mph - N/A   Clear
3:53 PM 95.0 °F 33.1 °F 11% 29.81 in 10.0 mi East 5.8 mph - N/A   Clear
4:53 PM 93.9 °F 30.9 °F 11% 29.80 in 10.0 mi ESE 5.8 mph - N/A   Clear
5:53 PM 93.0 °F 30.9 °F 11% 29.79 in 10.0 mi ESE 8.1 mph - N/A   Clear
6:53 PM 89.1 °F 33.1 °F 14% 29.79 in 10.0 mi Variable 3.5 mph - N/A   Clear
7:53 PM 86.0 °F 34.0 °F 16% 29.80 in 10.0 mi NW 8.1 mph 17.3 mph N/A   Clear
8:53 PM 84.0 °F 33.1 °F 16% 29.81 in 10.0 mi NW 12.7 mph - N/A   Clear
9:53 PM 82.9 °F 30.0 °F 15% 29.81 in 10.0 mi Variable 5.8 mph 18.4 mph N/A   Clear
10:53 PM 77.0 °F 36.0 °F 23% 29.82 in 10.0 mi Calm Calm - N/A   Clear
11:53 PM 75.0 °F 35.1 °F 23% 29.80 in 10.0 mi Calm Calm - N/A   Clear